Zurück zum Katalog

JILIN-01 KUANFU 02B 6

AktivWissenschaftSSO
NORAD 61194·PAYLOAD·🇨🇳 China

Gestartet Sep 20, 2024 von Taiyuan Satellite Launch Center

Loading…

Nächste Überflüge (nächste 24 Stunden)

TLE

AktuellSource: Space-Track

Epoche: Sep 14, 2026, 14:18 UTC

1 61194U 24169F   26257.59596471  .00003341  00000-0  21247-3 0  9991
2 61194  97.5531 345.7845 0016702  20.6451 339.5449 15.09389661109323

Verfolge JILIN-01 KUANFU 02B 6 in Echtzeit mit AllMySat

Download on the App Store